Wind_Speed
37 37 37 37 36 36 36 37 38 38 37 36 38 38 38 39 40 41 42 42 42 41 42 42 43 43 43 43 43 43 44 46 47 48 49 50 50 51 51 50 50 50 51 51
38 38 39 38 38 37 38 38 38 38 38 37 38 38 38 39 40 40 41 41 41 42 43 43 44 44 43 42 42 43 44 44 45 47 48 49 50 51 51 52 50 50 50 52
39 39 40 40 39 39 39 38 39 39 38 38 38 38 38 39 40 40 40 40 40 40 41 41 41 41 42 43 42 43 44 44 44 45 47 47 49 50 51 52 54 52 51 52
40 40 40 40 39 40 40 39 39 39 39 39 39 38 38 40 40 40 40 39 39 39 39 39 40 40 41 42 42 43 42 42 42 44 46 47 47 48 50 51 53 54 54 53
39 40 41 39 39 40 39 38 38 38 38 39 39 38 38 40 40 40 39 39 39 39 38 38 38 39 39 40 41 41 41 41 41 42 43 44 46 47 48 50 51 53 53 52
39 40 41 40 39 39 40 39 38 38 38 38 38 38 38 39 40 39 39 40 39 38 38 37 37 38 38 38 39 39 40 40 40 40 41 42 43 45 46 48 49 51 51 52
39 39 39 39 39 38 39 39 38 37 37 37 38 38 39 39 39 39 39 39 39 38 37 37 36 36 36 37 37 38 39 40 40 40 40 41 42 42 44 45 46 47 49 50
38 38 38 37 38 38 38 37 37 37 37 37 37 37 38 38 38 38 38 37 37 36 36 36 35 35 35 35 36 37 38 39 39 40 40 41 41 41 42 43 43 44 46 48
37 37 36 36 37 36 36 36 36 37 37 37 36 36 36 36 36 36 36 35 35 35 35 35 35 34 34 34 35 35 36 37 38 39 39 39 39 39 40 41 42 43 45 46
36 35 35 35 35 35 35 35 35 36 36 35 36 35 35 35 35 34 34 34 34 34 34 35 35 34 34 34 34 35 36 36 36 36 36 36 36 37 38 39 40 42 43 44
35 34 34 34 35 35 35 34 34 35 35 35 35 34 34 34 34 34 34 35 35 35 35 34 34 33 34 34 34 34 34 34 34 35 35 35 35 35 36 37 37 38 40 41
34 34 34 33 34 34 34 33 34 34 34 34 34 34 34 33 33 33 34 34 34 34 34 34 33 33 34 34 34 33 33 33 34 34 34 34 34 34 35 35 35 35 36 38
33 33 32 31 31 32 32 33 33 33 33 33 33 33 33 33 33 33 33 33 33 33 33 33 32 33 32 32 32 31 31 32 33 33 33 33 33 33 33 33 33 33 33 34
32 31 30 30 31 32 32 32 32 32 32 32 32 32 32 32 32 33 33 32 32 33 32 31 31 31 30 30 30 30 30 31 31 30 30 31 32 32 32 31 31 30 31 32
31 31 31 31 32 32 32 32 31 31 32 32 32 31 31 31 32 32 32 32 32 32 32 30 29 29 28 28 28 29 29 29 29 29 29 29 29 30 30 30 29 29 29 30
30 31 31 32 32 32 31 31 31 31 31 31 31 31 31 32 32 32 32 32 32 31 30 29 28 28 27 27 27 27 27 27 27 27 27 27 27 27 27 27 27 28 28 29
30 30 31 31 31 31 31 31 32 31 31 30 31 31 31 31 31 31 31 31 31 30 30 29 28 27 27 26 25 25 25 25 25 25 25 24 24 23 24 24 25 25 26 27
31 31 31 31 31 31 31 30 30 30 30 30 30 31 31 31 31 30 30 30 29 29 28 28 27 26 25 25 25 24 24 24 23 23 22 22 21 22 22 22 23 23 24 25
31 31 31 30 30 31 30 30 29 30 30 30 30 30 30 30 29 29 29 29 28 28 27 26 26 25 24 24 24 24 23 23 22 21 21 21 21 22 21 21 21 21 22 22
29 29 29 29 29 29 29 29 29 29 29 29 29 29 29 29 28 28 28 28 27 26 26 25 24 23 22 23 22 22 22 21 21 20 19 20 20 20 20 20 20 20 21 21
28 28 28 28 28 28 28 28 28 28 28 28 28 28 28 28 27 27 26 25 25 24 24 23 22 22 22 21 21 21 20 20 19 19 19 19 19 19 19 19 19 19 19 20
28 28 28 28 28 28 28 28 27 27 27 27 27 27 27 26 26 25 25 24 23 23 22 21 21 21 21 20 20 20 19 19 19 19 19 19 18 18 18 18 17 18 18 18
27 28 28 27 27 27 27 27 27 26 26 26 26 25 25 25 24 24 24 23 23 22 22 21 21 20 20 19 19 19 19 19 19 19 19 19 18 18 17 18 18 17 18 18
27 27 27 26 26 26 26 26 25 25 25 25 24 24 24 24 24 23 23 23 22 22 21 21 20 20 19 19 19 19 19 19 19 18 18 18 18 18 17 17 17 17 17 17
26 26 25 25 25 25 25 25 25 25 24 24 24 24 24 23 23 23 23 23 22 22 21 21 20 19 19 19 19 19 18 18 18 17 17 17 16 16 15 15 15 15 16 16
25 25 25 25 25 25 25 25 25 24 24 24 23 23 23 23 23 23 23 23 22 22 21 20 19 19 19 19 19 19 18 18 18 18 17 17 16 16 15 14 14 15 15 16
25 25 25 25 25 24 24 24 24 23 23 23 23 23 23 23 23 23 23 23 22 21 20 20 19 19 19 19 19 18 18 18 18 17 17 16 16 15 15 14 14 14 15 16
Wind_Direction
295 295 295 296 296 295 294 294 294 294 294 294 294 294 292 291 289 288 288 287 286 284 282 281 279 277 276 275 272 270 268 267 265 264 263 262 260 259 258 257 256 252 251 251
293 294 293 293 294 294 293 293 294 294 293 292 292 293 292 291 290 289 289 287 286 285 284 282 281 279 278 276 274 272 271 269 267 266 265 264 262 261 260 257 256 255 254 253
294 294 293 294 295 295 295 294 294 294 294 292 292 292 293 292 291 291 290 289 288 287 285 284 282 280 279 277 276 275 274 272 269 267 265 264 263 262 260 258 256 256 256 256
295 296 295 296 297 296 296 295 294 294 293 293 292 292 293 293 293 292 291 290 289 288 287 285 283 281 279 277 277 276 275 274 272 269 266 265 264 263 262 260 258 257 257 257
294 295 295 297 298 298 298 296 295 294 293 293 292 292 293 293 293 292 292 291 290 289 288 286 284 282 280 278 277 277 277 276 274 272 269 267 265 265 264 262 260 258 256 256
293 294 296 298 298 298 298 296 296 295 295 294 294 293 292 292 293 293 292 291 291 290 289 287 286 284 281 279 278 277 276 277 277 275 273 270 268 266 265 263 261 258 256 255
293 294 296 298 298 299 298 298 298 297 296 296 295 295 294 293 293 293 293 292 291 290 289 288 287 285 283 281 278 277 277 277 277 277 276 273 270 268 266 265 262 259 255 253
293 294 296 297 297 297 299 299 298 297 297 297 297 297 297 296 296 295 295 293 292 291 290 289 288 286 284 282 281 279 278 277 278 278 277 276 273 270 268 265 261 258 255 254
294 295 295 296 296 297 298 298 298 298 298 298 298 298 297 297 297 297 296 295 294 292 291 291 289 287 285 283 283 281 280 280 280 279 278 276 275 272 269 266 263 260 257 255
294 294 294 296 297 298 297 297 298 298 298 298 298 298 298 298 298 298 297 296 296 294 293 292 289 286 285 284 284 283 281 281 281 280 278 277 275 273 271 268 265 263 260 258
295 294 293 295 296 298 298 298 299 299 299 299 299 300 299 299 299 299 298 297 296 295 294 293 290 287 287 286 284 284 283 282 281 280 279 277 275 274 273 270 267 265 261 259
294 295 294 295 296 298 299 300 300 300 300 300 300 300 300 300 300 300 300 300 298 296 296 294 292 290 289 288 286 284 283 282 281 281 278 277 275 275 274 271 267 265 263 260
293 294 295 296 297 299 300 301 302 302 302 302 302 302 302 302 302 302 302 301 300 299 298 296 293 292 291 290 288 286 284 284 284 282 279 276 276 275 274 272 269 266 263 259
292 293 294 295 297 299 300 301 302 302 303 303 303 303 303 304 304 304 303 303 302 301 301 299 296 295 292 291 289 289 288 286 285 282 280 279 278 276 274 271 268 266 264 261
293 294 294 294 295 298 300 301 302 303 303 304 304 305 305 305 305 304 304 303 302 302 302 300 299 298 296 294 292 292 291 289 287 284 281 280 279 277 274 271 268 265 263 260
294 294 295 296 297 298 299 300 302 303 304 304 305 305 306 307 307 306 305 304 303 302 301 300 299 299 298 297 296 296 295 292 290 289 285 282 280 278 274 270 268 267 264 260
295 295 297 298 299 299 300 300 301 302 302 303 304 305 307 309 309 309 308 307 305 303 302 300 299 299 298 297 297 299 298 295 293 292 289 285 283 281 278 273 270 269 266 263
296 296 297 298 299 300 300 301 302 302 303 304 305 306 307 309 310 310 311 310 308 305 303 301 300 300 298 297 297 298 299 297 297 295 290 286 285 284 282 277 273 272 268 264
298 298 298 299 299 300 300 299 301 302 303 304 305 306 308 310 311 311 312 312 311 308 305 302 301 300 298 298 298 298 298 297 297 296 293 289 287 285 282 279 276 273 271 268
300 299 299 299 300 301 301 301 301 302 303 304 306 307 309 310 310 311 312 312 312 311 308 305 303 301 300 301 301 301 300 299 296 295 293 291 289 286 282 278 277 275 271 268
301 300 300 300 301 302 302 302 302 303 304 305 306 308 309 311 312 313 314 313 314 314 312 309 306 303 302 303 303 304 303 301 298 299 297 295 292 287 283 279 278 276 272 268
302 301 301 301 301 302 302 303 303 304 305 307 308 309 310 312 313 315 316 316 317 317 315 313 310 307 305 304 303 303 303 301 300 299 298 296 294 289 284 279 278 277 274 270
304 304 304 303 302 302 303 303 304 305 306 307 308 310 312 313 314 315 315 316 316 316 316 315 314 311 309 306 304 302 302 302 303 301 299 298 295 291 285 279 277 276 273 270
306 306 306 305 305 305 304 305 306 307 307 308 309 311 312 314 314 315 315 315 315 315 315 314 314 314 311 310 308 306 304 302 302 303 302 300 299 294 288 283 279 276 275 272
307 307 307 306 306 306 306 306 307 308 308 308 309 311 311 312 313 314 314 314 313 313 313 312 312 313 312 311 311 310 307 305 304 303 303 304 303 299 293 288 283 279 278 276
306 307 307 307 307 307 307 307 307 307 308 308 310 311 312 312 313 313 314 314 312 311 311 310 311 311 312 312 311 310 308 305 304 304 304 303 302 298 295 292 288 284 281 279
306 307 307 307 307 307 307 308 308 308 308 308 309 310 311 312 313 314 314 314 313 311 310 308 309 310 311 311 310 309 308 306 304 302 302 302 301 298 295 294 292 288 284 282
Height
5607 5604 5600 5597 5594 5590 5586 5582 5579 5578 5575 5573 5568 5564 5560 5557 5554 5551 5548 5546 5543 5541 5539 5538 5536 5534 5532 5531 5530 5529 5528 5528 5528 5527 5527 5528 5529 5531 5533 5535 5537 5540 5542 5545
5599 5595 5591 5587 5585 5582 5578 5574 5571 5568 5566 5564 5559 5554 5551 5547 5544 5541 5538 5535 5532 5530 5528 5526 5524 5522 5520 5519 5518 5517 5516 5515 5515 5514 5515 5515 5516 5517 5519 5521 5523 5526 5528 5531
5588 5585 5581 5579 5577 5573 5569 5566 5562 5558 5557 5553 5549 5545 5541 5538 5534 5531 5527 5524 5521 5519 5516 5514 5511 5510 5508 5507 5506 5504 5503 5503 5502 5502 5502 5502 5502 5503 5505 5507 5509 5511 5514 5517
5577 5575 5571 5573 5567 5563 5559 5557 5553 5549 5546 5542 5539 5535 5532 5527 5524 5521 5517 5514 5511 5508 5506 5503 5500 5498 5496 5495 5494 5493 5491 5490 5489 5489 5489 5489 5489 5489 5491 5492 5494 5497 5499 5501
5567 5563 5561 5562 5557 5553 5549 5547 5543 5539 5536 5532 5528 5526 5523 5518 5514 5511 5507 5504 5501 5498 5495 5492 5490 5487 5485 5484 5483 5481 5480 5478 5477 5476 5475 5475 5475 5476 5476 5477 5479 5481 5484 5486
5557 5553 5551 5553 5548 5542 5539 5536 5534 5530 5526 5522 5518 5516 5514 5508 5505 5501 5498 5494 5491 5488 5485 5482 5479 5477 5474 5473 5471 5470 5468 5467 5465 5464 5463 5462 5462 5462 5462 5463 5464 5466 5469 5472
5548 5544 5542 5542 5537 5533 5530 5528 5523 5519 5516 5512 5509 5506 5503 5498 5495 5491 5488 5484 5481 5477 5475 5472 5469 5466 5464 5462 5460 5459 5457 5455 5454 5452 5451 5450 5450 5449 5448 5449 5450 5452 5455 5458
5539 5536 5536 5532 5528 5524 5521 5517 5513 5509 5506 5503 5500 5496 5493 5489 5485 5481 5478 5474 5470 5467 5464 5461 5459 5456 5454 5452 5450 5448 5446 5444 5443 5441 5440 5438 5437 5436 5435 5435 5436 5438 5441 5444
5532 5531 5526 5522 5518 5515 5511 5508 5504 5501 5497 5494 5491 5487 5483 5480 5476 5472 5468 5465 5461 5458 5455 5452 5449 5446 5444 5441 5439 5437 5435 5433 5431 5430 5428 5426 5425 5424 5423 5423 5423 5425 5427 5430
5522 5521 5517 5513 5509 5506 5502 5499 5495 5492 5489 5485 5482 5478 5474 5471 5467 5464 5460 5456 5452 5448 5445 5442 5439 5436 5433 5431 5429 5427 5425 5423 5420 5418 5417 5415 5414 5413 5412 5411 5412 5413 5414 5417
5513 5512 5509 5506 5501 5498 5494 5491 5487 5483 5480 5476 5473 5469 5465 5462 5459 5455 5451 5447 5443 5439 5436 5432 5429 5426 5423 5421 5419 5416 5414 5412 5410 5408 5406 5405 5403 5402 5401 5401 5400 5401 5402 5404
5505 5503 5500 5497 5493 5490 5486 5483 5479 5475 5472 5468 5464 5461 5457 5453 5450 5446 5442 5438 5434 5430 5426 5422 5419 5416 5413 5411 5408 5406 5404 5402 5400 5398 5396 5395 5393 5392 5390 5390 5389 5389 5390 5392
5497 5494 5491 5488 5485 5482 5478 5475 5471 5468 5464 5460 5456 5452 5449 5445 5441 5437 5433 5429 5425 5421 5417 5413 5410 5407 5403 5401 5398 5396 5394 5392 5390 5388 5386 5385 5384 5382 5381 5380 5378 5379 5379 5381
5488 5486 5483 5480 5477 5474 5471 5467 5464 5460 5456 5452 5449 5445 5441 5437 5433 5429 5425 5421 5417 5413 5409 5405 5401 5398 5394 5391 5389 5387 5384 5382 5380 5378 5376 5375 5374 5372 5371 5371 5370 5370 5370 5370
5480 5478 5475 5472 5469 5466 5463 5459 5456 5452 5449 5445 5441 5437 5433 5430 5426 5421 5417 5413 5409 5405 5401 5397 5393 5390 5386 5383 5381 5378 5375 5373 5371 5369 5367 5366 5364 5363 5362 5361 5361 5361 5361 5362
5473 5470 5467 5464 5461 5458 5455 5452 5449 5445 5441 5438 5434 5430 5426 5422 5418 5413 5409 5405 5401 5397 5393 5389 5385 5382 5379 5376 5373 5371 5368 5365 5363 5361 5359 5357 5356 5354 5354 5353 5353 5353 5353 5354
5465 5462 5459 5456 5453 5450 5447 5444 5441 5437 5434 5430 5426 5423 5419 5415 5410 5406 5401 5397 5392 5388 5385 5381 5378 5375 5372 5369 5366 5364 5361 5358 5356 5353 5351 5349 5348 5347 5346 5345 5345 5345 5345 5345
5456 5454 5451 5448 5445 5442 5439 5436 5433 5429 5426 5422 5419 5415 5411 5407 5403 5398 5394 5389 5385 5381 5377 5373 5370 5368 5365 5362 5359 5357 5355 5352 5349 5346 5344 5343 5341 5340 5339 5338 5338 5338 5338 5338
5449 5446 5443 5440 5437 5434 5431 5428 5425 5422 5418 5415 5411 5408 5404 5400 5395 5391 5387 5382 5378 5374 5370 5366 5363 5360 5358 5355 5353 5350 5348 5345 5343 5340 5338 5337 5335 5334 5333 5332 5331 5331 5331 5331
5441 5438 5435 5432 5429 5426 5423 5420 5417 5414 5411 5408 5404 5400 5397 5393 5389 5384 5380 5375 5371 5367 5363 5360 5357 5354 5352 5349 5347 5344 5342 5339 5337 5335 5333 5331 5330 5328 5327 5326 5325 5325 5325 5325
5434 5431 5428 5425 5422 5419 5416 5413 5410 5407 5404 5400 5397 5393 5390 5386 5382 5378 5374 5370 5366 5362 5358 5355 5352 5349 5346 5344 5341 5339 5336 5334 5332 5330 5328 5326 5324 5322 5321 5320 5319 5319 5319 5319
5427 5424 5420 5417 5415 5412 5409 5406 5403 5400 5397 5394 5390 5387 5383 5380 5376 5372 5368 5364 5360 5356 5353 5349 5346 5343 5341 5338 5336 5334 5331 5329 5327 5325 5323 5320 5318 5317 5315 5314 5313 5313 5313 5313
5420 5417 5413 5410 5407 5405 5402 5399 5396 5393 5390 5387 5384 5381 5377 5373 5370 5366 5363 5359 5355 5351 5348 5344 5341 5338 5336 5333 5331 5329 5327 5324 5322 5320 5317 5315 5313 5311 5310 5309 5308 5307 5307 5307
5413 5410 5407 5403 5400 5398 5395 5392 5390 5387 5384 5381 5378 5374 5371 5368 5364 5361 5357 5353 5350 5347 5343 5340 5337 5334 5331 5329 5326 5324 5322 5319 5317 5315 5312 5310 5308 5306 5305 5303 5303 5302 5302 5302
5406 5403 5400 5397 5394 5391 5389 5386 5383 5380 5378 5375 5372 5368 5365 5362 5359 5355 5352 5348 5345 5342 5338 5335 5332 5330 5327 5325 5322 5319 5317 5315 5312 5310 5308 5306 5304 5302 5300 5299 5298 5297 5297 5297
5400 5397 5394 5391 5388 5385 5383 5380 5377 5374 5371 5368 5366 5362 5359 5356 5353 5350 5347 5343 5340 5337 5333 5331 5328 5325 5323 5320 5317 5315 5312 5310 5308 5306 5304 5301 5299 5297 5296 5295 5294 5293 5292 5292
5394 5391 5388 5385 5382 5379 5377 5374 5371 5368 5365 5363 5360 5357 5354 5351 5347 5344 5341 5338 5334 5331 5328 5326 5323 5321 5318 5315 5313 5310 5308 5305 5303 5301 5299 5297 5295 5293 5292 5291 5289 5288 5287 5287